Time,TemperatureF,DewpointF,PressureIn,WindDirection,WindDirectionDegrees,WindSpeedMPH,WindSpeedGustMPH,Humidity,HourlyPrecipIn,Conditions,Clouds,dailyrainin,SoftwareType,DateUTC
2013-04-17 00:11:00,46.4,40.0,30.20,NE,38,6.0,-999.0,78,-99.99,,,0.90,weatherlink.com 1.10,2013-04-17 05:11:00,
2013-04-17 00:26:00,46.3,40.0,30.19,NE,42,5.0,-999.0,78,-99.99,,,0.90,weatherlink.com 1.10,2013-04-17 05:26:00,
2013-04-17 00:41:00,46.3,40.0,30.20,NE,54,2.0,-999.0,78,-99.99,,,0.90,weatherlink.com 1.10,2013-04-17 05:41:00,
2013-04-17 00:56:00,46.3,40.0,30.20,NNE,30,5.0,-999.0,78,-99.99,,,0.00,weatherlink.com 1.10,2013-04-17 05:56:00,
2013-04-17 01:11:00,46.3,40.0,30.21,NE,45,2.0,-999.0,79,-99.99,,,0.00,weatherlink.com 1.10,2013-04-17 06:11:00,
2013-04-17 01:26:00,46.2,40.0,30.20,NE,42,5.0,-999.0,79,-99.99,,,0.00,weatherlink.com 1.10,2013-04-17 06:26:00,
2013-04-17 01:41:00,46.1,40.0,30.19,NE,50,5.0,-999.0,79,-99.99,,,0.00,weatherlink.com 1.10,2013-04-17 06:41:00,
2013-04-17 01:56:00,46.0,40.0,30.18,NE,47,10.0,-999.0,78,-99.99,,,0.00,weatherlink.com 1.10,2013-04-17 06:56:00,
2013-04-17 02:11:00,45.9,40.0,30.19,NNE,31,9.0,-999.0,80,-99.99,,,0.00,weatherlink.com 1.10,2013-04-17 07:11:00,
2013-04-17 02:26:00,45.8,40.0,30.19,NNE,32,4.0,-999.0,80,-99.99,,,0.00,weatherlink.com 1.10,2013-04-17 07:26:00,
2013-04-17 02:41:00,45.6,40.0,30.18,NE,38,7.0,-999.0,80,-99.99,,,0.00,weatherlink.com 1.10,2013-04-17 07:41:00,
2013-04-17 02:56:00,45.5,39.0,30.19,NE,44,8.0,-999.0,79,-99.99,,,0.00,weatherlink.com 1.10,2013-04-17 07:56:00,
2013-04-17 03:12:00,45.5,40.0,30.18,NE,44,10.0,-999.0,82,-99.99,,,0.00,weatherlink.com 1.10,2013-04-17 08:12:00,
2013-04-17 03:27:00,45.2,39.0,30.19,NE,46,5.0,-999.0,80,-99.99,,,0.00,weatherlink.com 1.10,2013-04-17 08:27:00,
2013-04-17 03:42:00,45.1,39.0,30.20,NNE,22,4.0,-999.0,79,-99.99,,,0.00,weatherlink.com 1.10,2013-04-17 08:42:00,
2013-04-17 03:57:00,45.0,40.0,30.18,NE,36,6.0,-999.0,81,-99.99,,,0.00,weatherlink.com 1.10,2013-04-17 08:57:00,
2013-04-17 04:12:00,45.0,40.0,30.18,NE,34,9.0,-999.0,82,-99.99,,,0.00,weatherlink.com 1.10,2013-04-17 09:12:00,
2013-04-17 04:27:00,44.7,40.0,30.19,NE,45,7.0,-999.0,82,-99.99,,,0.00,weatherlink.com 1.10,2013-04-17 09:27:00,
2013-04-17 04:42:00,44.5,40.0,30.19,NE,37,2.0,-999.0,83,-99.99,,,0.01,weatherlink.com 1.10,2013-04-17 09:42:00,
2013-04-17 04:57:00,44.1,41.0,30.17,NE,49,3.0,-999.0,87,-99.99,,,0.02,weatherlink.com 1.10,2013-04-17 09:57:00,
2013-04-17 05:12:00,44.1,41.0,30.17,NE,46,4.0,-999.0,87,-99.99,,,0.02,weatherlink.com 1.10,2013-04-17 10:12:00,
2013-04-17 05:27:00,44.5,41.0,30.18,NE,51,2.0,-999.0,86,-99.99,,,0.02,weatherlink.com 1.10,2013-04-17 10:27:00,
2013-04-17 05:42:00,45.0,41.0,30.17,ENE,68,3.0,-999.0,85,-99.99,,,0.02,weatherlink.com 1.10,2013-04-17 10:42:00,
2013-04-17 05:57:00,45.3,41.0,30.15,ENE,59,2.0,-999.0,84,-99.99,,,0.02,weatherlink.com 1.10,2013-04-17 10:57:00,
2013-04-17 06:12:00,45.4,41.0,30.14,ENE,60,9.0,-999.0,83,-99.99,,,0.02,weatherlink.com 1.10,2013-04-17 11:12:00,
2013-04-17 06:27:00,45.9,41.0,30.15,ENE,64,10.0,-999.0,82,-99.99,,,0.02,weatherlink.com 1.10,2013-04-17 11:27:00,
2013-04-17 06:42:00,46.0,41.0,30.17,NE,55,3.0,-999.0,83,-99.99,,,0.03,weatherlink.com 1.10,2013-04-17 11:42:00,
2013-04-17 06:57:00,46.3,41.0,30.16,East,87,5.0,-999.0,82,-99.99,,,0.03,weatherlink.com 1.10,2013-04-17 11:57:00,
2013-04-17 07:12:00,46.7,41.0,30.15,ESE,105,3.0,-999.0,81,-99.99,,,0.03,weatherlink.com 1.10,2013-04-17 12:12:00,
2013-04-17 07:27:00,46.9,42.0,30.16,East,101,3.0,-999.0,83,-99.99,,,0.03,weatherlink.com 1.10,2013-04-17 12:27:00,
2013-04-17 07:42:00,47.2,42.0,30.16,ENE,69,5.0,-999.0,82,-99.99,,,0.03,weatherlink.com 1.10,2013-04-17 12:42:00,
2013-04-17 07:57:00,47.6,42.0,30.15,East,90,5.0,-999.0,82,-99.99,,,0.03,weatherlink.com 1.10,2013-04-17 12:57:00,
2013-04-17 08:12:00,48.3,43.0,30.14,East,84,5.0,-999.0,82,-99.99,,,0.03,weatherlink.com 1.10,2013-04-17 13:12:00,
2013-04-17 08:27:00,48.8,44.0,30.11,East,79,4.0,-999.0,82,-99.99,,,0.03,weatherlink.com 1.10,2013-04-17 13:27:00,
2013-04-17 08:42:00,49.2,44.0,30.14,SE,124,2.0,-999.0,83,-99.99,,,0.03,weatherlink.com 1.10,2013-04-17 13:42:00,
2013-04-17 08:57:00,49.7,45.0,30.13,ESE,119,6.0,-999.0,83,-99.99,,,0.03,weatherlink.com 1.10,2013-04-17 13:57:00,
2013-04-17 09:13:00,50.0,45.0,30.13,ESE,121,2.0,-999.0,82,-99.99,,,0.03,weatherlink.com 1.10,2013-04-17 14:13:00,
2013-04-17 09:28:00,50.5,45.0,30.12,ESE,111,11.0,-999.0,82,-99.99,,,0.03,weatherlink.com 1.10,2013-04-17 14:28:00,
2013-04-17 09:43:00,50.5,45.0,30.11,East,98,6.0,-999.0,82,-99.99,,,0.03,weatherlink.com 1.10,2013-04-17 14:43:00,
2013-04-17 09:58:00,51.0,46.0,30.09,ESE,119,5.0,-999.0,83,-99.99,,,0.03,weatherlink.com 1.10,2013-04-17 14:58:00,
2013-04-17 10:13:00,51.6,46.0,30.08,ESE,111,10.0,-999.0,82,-99.99,,,0.03,weatherlink.com 1.10,2013-04-17 15:13:00,
2013-04-17 10:28:00,52.0,47.0,30.09,ESE,111,4.0,-999.0,83,-99.99,,,0.03,weatherlink.com 1.10,2013-04-17 15:28:00,
2013-04-17 10:43:00,52.3,48.0,30.09,SE,130,10.0,-999.0,84,-99.99,,,0.03,weatherlink.com 1.10,2013-04-17 15:43:00,
2013-04-17 10:58:00,52.8,49.0,30.08,SE,126,7.0,-999.0,86,-99.99,,,0.03,weatherlink.com 1.10,2013-04-17 15:58:00,
2013-04-17 11:13:00,52.9,49.0,30.07,SE,133,7.0,-999.0,87,-99.99,,,0.03,weatherlink.com 1.10,2013-04-17 16:13:00,
2013-04-17 11:28:00,53.3,50.0,30.07,SSE,148,10.0,-999.0,87,-99.99,,,0.03,weatherlink.com 1.10,2013-04-17 16:28:00,
2013-04-17 11:43:00,53.9,50.0,30.06,ESE,120,11.0,-999.0,86,-99.99,,,0.03,weatherlink.com 1.10,2013-04-17 16:43:00,
2013-04-17 11:58:00,54.5,51.0,30.06,SE,125,18.0,-999.0,87,-99.99,,,0.03,weatherlink.com 1.10,2013-04-17 16:58:00,
2013-04-17 12:13:00,54.9,51.0,30.06,ESE,114,9.0,-999.0,87,-99.99,,,0.03,weatherlink.com 1.10,2013-04-17 17:13:00,
2013-04-17 12:28:00,55.4,52.0,30.05,ESE,118,10.0,-999.0,88,-99.99,,,0.03,weatherlink.com 1.10,2013-04-17 17:28:00,
2013-04-17 12:43:00,56.0,53.0,30.03,SE,133,11.0,-999.0,88,-99.99,,,0.03,weatherlink.com 1.10,2013-04-17 17:43:00,
2013-04-17 12:58:00,57.2,54.0,30.02,ESE,118,6.0,-999.0,88,-99.99,,,0.03,weatherlink.com 1.10,2013-04-17 17:58:00,
2013-04-17 13:13:00,58.4,55.0,30.01,SE,126,18.0,-999.0,88,-99.99,,,0.03,weatherlink.com 1.10,2013-04-17 18:13:00,
2013-04-17 13:28:00,59.0,56.0,30.00,SE,142,13.0,-999.0,88,-99.99,,,0.03,weatherlink.com 1.10,2013-04-17 18:28:00,
2013-04-17 13:43:00,59.7,56.0,30.00,SE,125,12.0,-999.0,88,-99.99,,,0.03,weatherlink.com 1.10,2013-04-17 18:43:00,
2013-04-17 13:58:00,60.5,57.0,29.98,SE,135,16.0,-999.0,89,-99.99,,,0.03,weatherlink.com 1.10,2013-04-17 18:58:00,
2013-04-17 14:14:00,60.9,58.0,29.98,SE,145,15.0,-999.0,89,-99.99,,,0.03,weatherlink.com 1.10,2013-04-17 19:14:00,
2013-04-17 14:29:00,61.7,59.0,29.97,SE,136,10.0,-999.0,89,-99.99,,,0.03,weatherlink.com 1.10,2013-04-17 19:29:00,
2013-04-17 14:44:00,62.7,60.0,29.95,SE,140,10.0,-999.0,89,-99.99,,,0.03,weatherlink.com 1.10,2013-04-17 19:44:00,
2013-04-17 14:59:00,63.6,60.0,29.93,SE,144,15.0,-999.0,89,-99.99,,,0.03,weatherlink.com 1.10,2013-04-17 19:59:00,
2013-04-17 15:14:00,64.2,61.0,29.92,SE,143,10.0,-999.0,89,-99.99,,,0.03,weatherlink.com 1.10,2013-04-17 20:14:00,
2013-04-17 15:29:00,65.0,62.0,29.92,SE,134,7.0,-999.0,89,-99.99,,,0.03,weatherlink.com 1.10,2013-04-17 20:29:00,
2013-04-17 15:44:00,65.5,62.0,29.90,SE,135,10.0,-999.0,89,-99.99,,,0.03,weatherlink.com 1.10,2013-04-17 20:44:00,
2013-04-17 15:59:00,66.6,63.0,29.90,SSE,147,6.0,-999.0,89,-99.99,,,0.03,weatherlink.com 1.10,2013-04-17 20:59:00,
2013-04-17 16:14:00,67.2,64.0,29.91,SSE,151,7.0,-999.0,88,-99.99,,,0.03,weatherlink.com 1.10,2013-04-17 21:14:00,
2013-04-17 16:29:00,68.4,65.0,29.90,SSE,159,6.0,-999.0,88,-99.99,,,0.03,weatherlink.com 1.10,2013-04-17 21:29:00,
2013-04-17 16:44:00,69.2,65.0,29.90,SE,146,14.0,-999.0,87,-99.99,,,0.03,weatherlink.com 1.10,2013-04-17 21:44:00,
2013-04-17 16:59:00,69.4,65.0,29.89,SSE,160,8.0,-999.0,87,-99.99,,,0.03,weatherlink.com 1.10,2013-04-17 21:59:00,
2013-04-17 17:14:00,69.7,66.0,29.87,SE,140,6.0,-999.0,87,-99.99,,,0.03,weatherlink.com 1.10,2013-04-17 22:14:00,
2013-04-17 17:29:00,70.0,66.0,29.87,SSE,149,6.0,-999.0,87,-99.99,,,0.03,weatherlink.com 1.10,2013-04-17 22:29:00,
2013-04-17 17:44:00,66.8,61.0,29.89,NNW,337,8.0,-999.0,81,-99.99,,,0.03,weatherlink.com 1.10,2013-04-17 22:44:00,
2013-04-17 17:59:00,59.9,56.0,29.89,NE,34,12.0,-999.0,88,-99.99,,,0.03,weatherlink.com 1.10,2013-04-17 22:59:00,
2013-04-17 18:15:00,56.9,54.0,29.89,NNE,21,16.0,-999.0,90,-99.99,,,0.03,weatherlink.com 1.10,2013-04-17 23:15:00,
2013-04-17 18:30:00,53.7,51.0,29.90,NNE,22,3.0,-999.0,90,-99.99,,,0.03,weatherlink.com 1.10,2013-04-17 23:30:00,
2013-04-17 18:45:00,51.4,49.0,29.90,North,351,21.0,-999.0,92,-99.99,,,0.04,weatherlink.com 1.10,2013-04-17 23:45:00,
2013-04-17 19:00:00,50.1,48.0,29.86,NNE,19,14.0,-999.0,93,-99.99,,,0.08,weatherlink.com 1.10,2013-04-18 00:00:00,
2013-04-17 19:14:00,49.4,48.0,29.88,NE,42,19.0,-999.0,93,-99.99,,,0.09,weatherlink.com 1.10,2013-04-18 00:14:00,
2013-04-17 19:29:00,49.2,48.0,29.88,NNE,27,5.0,-999.0,94,-99.99,,,0.10,weatherlink.com 1.10,2013-04-18 00:29:00,
2013-04-17 19:44:00,49.3,48.0,29.87,NE,34,4.0,-999.0,94,-99.99,,,0.14,weatherlink.com 1.10,2013-04-18 00:44:00,
2013-04-17 19:59:00,49.7,48.0,29.89,ENE,67,1.0,-999.0,94,-99.99,,,0.14,weatherlink.com 1.10,2013-04-18 00:59:00,
2013-04-17 20:15:00,50.3,49.0,29.88,NE,44,3.0,-999.0,94,-99.99,,,0.14,weatherlink.com 1.10,2013-04-18 01:15:00,
2013-04-17 20:45:00,51.5,50.0,29.86,ENE,74,6.0,-999.0,94,-99.99,,,0.20,weatherlink.com 1.10,2013-04-18 01:45:00,
2013-04-17 21:00:00,51.7,50.0,29.85,ESE,108,3.0,-999.0,95,-99.99,,,0.20,weatherlink.com 1.10,2013-04-18 02:00:00,
2013-04-17 21:15:00,52.2,51.0,29.84,ENE,71,0.0,-999.0,95,-99.99,,,0.20,weatherlink.com 1.10,2013-04-18 02:15:00,
2013-04-17 21:30:00,52.9,52.0,29.84,ENE,64,9.0,-999.0,95,-99.99,,,0.20,weatherlink.com 1.10,2013-04-18 02:30:00,
2013-04-17 21:45:00,53.2,52.0,29.84,ENE,76,5.0,-999.0,95,-99.99,,,0.20,weatherlink.com 1.10,2013-04-18 02:45:00,
2013-04-17 22:00:00,53.6,52.0,29.82,ENE,65,4.0,-999.0,95,-99.99,,,0.20,weatherlink.com 1.10,2013-04-18 03:00:00,
2013-04-17 22:15:00,53.9,53.0,29.81,East,101,5.0,-999.0,95,-99.99,,,0.20,weatherlink.com 1.10,2013-04-18 03:15:00,
2013-04-17 22:30:00,54.4,53.0,29.80,East,88,8.0,-999.0,95,-99.99,,,0.20,weatherlink.com 1.10,2013-04-18 03:30:00,
2013-04-17 22:45:00,55.2,54.0,29.79,East,84,2.0,-999.0,96,-99.99,,,0.20,weatherlink.com 1.10,2013-04-18 03:45:00,
2013-04-17 23:00:00,55.7,55.0,29.79,ESE,117,9.0,-999.0,96,-99.99,,,0.20,weatherlink.com 1.10,2013-04-18 04:00:00,
2013-04-17 23:15:00,56.1,55.0,29.78,East,96,4.0,-999.0,96,-99.99,,,0.20,weatherlink.com 1.10,2013-04-18 04:15:00,
2013-04-17 23:30:00,56.8,56.0,29.77,SE,139,9.0,-999.0,96,-99.99,,,0.20,weatherlink.com 1.10,2013-04-18 04:30:00,
2013-04-17 23:45:00,57.4,57.0,29.75,SE,141,10.0,-999.0,97,-99.99,,,0.20,weatherlink.com 1.10,2013-04-18 04:45:00,